KORSAT-2

导读

KORSAT-2是韩国(KR)于2024年12月21日发射的卫星,国际编号为2024-247A,NORAD编号62377,轨道周期约96.1分钟。该卫星属于韩国"425项目"框架下第三颗军事侦察卫星,由SpaceX猎鹰9火箭从美国范登堡基地发射升空,搭载合成孔径雷达,旨在增强韩国太空侦察监视能力,完成部署后将为韩国军方提供关键情报支持。

Basic Information
目录编号:
62377
目录名称:
KORSAT-2
国际标识:
2024-247A
轨道中心:
EARTH
卫星名称:
KORSAT-2
卫星全名:
KORSAT-2
卫星状态:
在轨 (已飞行541 天)
发射日期:
2024-12-21 UTC
国别 :
韩国 (KR)
星等 :
--
Orbit Information
数据来源 国际轨道数据 AOE轨道数据
星历时间 2026-06-14T19:06:11+0800
18小时前
查看轨道信息
2026-06-15T05:00:00+0800
8小时前
查看轨道信息
半长轴 6948.884km 6948.875km
偏心率 0.0003497 0.0003404
轨道倾角 45.411° 45.411°
近地点辐角 218.635° 220.332°
升交点赤经 81.941° 79.806°
平近点角 141.428° 206.908°
近地点 568.316km 568.372km
远地点 573.178km 573.104km
周期 96.080分钟 96.080分钟
每日圈数 14.987534 14.987565
Detailed Information
使用方式:
暂无
2D Orbit Map
3D Orbit Map
Orbit Altitude Analysis Chart
Orbit Inclination Analysis Chart
Orbit Comprehensive Analysis Chart
View Comprehensive Chart